When you browse on this site, cookies collect data to enhance your experience and personalize the content and advertising you see.
Visit our Privacy Policy to learn more. By continuing to use the site, you agree to this use of cookies and data.
  • en France
  • Liste des pays
  • À 7 jours
  • Température de l'eau
  • Carte satellitaire
  • Carte météo
  • Widgets météo
  • user-avatar
    Se connecter

    Météo par heure à Minguetschaour

    Ce jour, 16 Février, Samedi

    Heure Température Précipitation Vent Pression Humidité
    00:00 +7°C° 0.1 mm 2 m/s 753 mmHg 88%
    01:00 +7°C° 0.2 mm 2 m/s 753 mmHg 88%
    02:00 +7°C° 0.2 mm 2 m/s 753 mmHg 89%
    03:00 +6°C° 0.2 mm 2 m/s 753 mmHg 89%
    04:00 +6°C° 0.4 mm 2 m/s 753 mmHg 89%
    05:00 +6°C° 0.4 mm 2 m/s 753 mmHg 89%
    06:00 +7°C° 0.4 mm 1 m/s 753 mmHg 89%
    07:00 +6°C° 0.3 mm 2 m/s 753 mmHg 86%
    08:00 +6°C° 0.3 mm 2 m/s 753 mmHg 84%
    09:00 +6°C° 0.3 mm 2 m/s 753 mmHg 81%
    10:00 +7°C° 0.1 mm 2 m/s 753 mmHg 75%
    11:00 +8°C° 0.1 mm 3 m/s 753 mmHg 68%
    12:00 +9°C° 0.1 mm 3 m/s 752 mmHg 61%
    13:00 +10°C° 0 mm 3 m/s 752 mmHg 58%
    14:00 +10°C° 0 mm 3 m/s 752 mmHg 54%
    15:00 +11°C° 0 mm 3 m/s 751 mmHg 50%
    16:00 +10°C° 0 mm 2 m/s 752 mmHg 53%
    17:00 +10°C° 0 mm 2 m/s 752 mmHg 56%
    18:00 +9°C° 0 mm 2 m/s 752 mmHg 59%
    19:00 +10°C° 0 mm 1 m/s 752 mmHg 62%
    20:00 +10°C° 0 mm 1 m/s 752 mmHg 65%
    21:00 +9°C° 0 mm 1 m/s 753 mmHg 67%
    22:00 +9°C° 0 mm 1 m/s 753 mmHg 68%
    23:00 +8°C° 0 mm 1 m/s 753 mmHg 69%

    Demain, 17 Février, Dimanche

    Heure Température Précipitation Vent Pression Humidité
    00:00 +8°C° 0 mm 1 m/s 752 mmHg 70%
    01:00 +8°C° 0 mm 1 m/s 752 mmHg 71%
    02:00 +8°C° 0 mm 1 m/s 752 mmHg 72%
    03:00 +7°C° 0 mm 1 m/s 752 mmHg 72%
    04:00 +7°C° 0 mm 1 m/s 752 mmHg 72%
    05:00 +7°C° 0 mm 1 m/s 752 mmHg 71%
    06:00 +7°C° 0 mm 1 m/s 753 mmHg 71%
    07:00 +7°C° 0 mm 1 m/s 753 mmHg 65%
    08:00 +8°C° 0 mm 1 m/s 753 mmHg 60%
    09:00 +9°C° 0 mm 1 m/s 753 mmHg 54%
    10:00 +9°C° 0 mm 2 m/s 753 mmHg 48%
    11:00 +10°C° 0 mm 3 m/s 753 mmHg 42%
    12:00 +12°C° 0 mm 3 m/s 753 mmHg 36%
    13:00 +12°C° 0 mm 4 m/s 753 mmHg 35%
    14:00 +13°C° 0 mm 4 m/s 753 mmHg 34%
    15:00 +13°C° 0 mm 4 m/s 752 mmHg 32%
    16:00 +12°C° 0 mm 3 m/s 752 mmHg 36%
    17:00 +12°C° 0 mm 2 m/s 753 mmHg 41%
    18:00 +10°C° 0 mm 2 m/s 753 mmHg 45%
    19:00 +10°C° 0 mm 2 m/s 753 mmHg 47%
    20:00 +10°C° 0 mm 1 m/s 753 mmHg 50%
    21:00 +9°C° 0 mm 1 m/s 754 mmHg 53%
    22:00 +9°C° 0 mm 1 m/s 754 mmHg 56%
    23:00 +8°C° 0 mm 1 m/s 753 mmHg 60%

    Après-demain, 18 Février, Lundi

    Heure Température Précipitation Vent Pression Humidité
    00:00 +8°C° 0 mm 1 m/s 753 mmHg 63%
    01:00 +7°C° 0 mm 1 m/s 753 mmHg 63%
    02:00 +7°C° 0 mm 1 m/s 753 mmHg 62%
    03:00 +7°C° 0 mm 1 m/s 752 mmHg 62%
    04:00 +5°C° 0 mm 2 m/s 752 mmHg 60%
    05:00 +5°C° 0 mm 2 m/s 752 mmHg 58%
    06:00 +4°C° 0 mm 3 m/s 752 mmHg 56%
    07:00 +5°C° 0 mm 3 m/s 751 mmHg 52%
    08:00 +6°C° 0 mm 4 m/s 751 mmHg 47%
    09:00 +8°C° 0 mm 5 m/s 751 mmHg 43%
    10:00 +9°C° 0 mm 5 m/s 750 mmHg 40%
    11:00 +10°C° 0 mm 5 m/s 749 mmHg 38%
    12:00 +11°C° 0 mm 6 m/s 749 mmHg 35%
    13:00 +13°C° 0 mm 6 m/s 748 mmHg 34%
    14:00 +14°C° 0 mm 6 m/s 748 mmHg 32%
    15:00 +14°C° 0 mm 6 m/s 747 mmHg 31%
    16:00 +13°C° 0 mm 5 m/s 747 mmHg 34%
    17:00 +12°C° 0 mm 4 m/s 747 mmHg 37%
    18:00 +11°C° 0 mm 3 m/s 747 mmHg 40%
    19:00 +11°C° 0 mm 4 m/s 748 mmHg 42%
    20:00 +10°C° 0 mm 4 m/s 748 mmHg 44%
    21:00 +8°C° 0 mm 4 m/s 748 mmHg 47%
    22:00 +8°C° 0 mm 4 m/s 748 mmHg 48%
    23:00 +7°C° 0 mm 4 m/s 749 mmHg 49%

    19 Février, Mardi

    Heure Température Précipitation Vent Pression Humidité
    00:00 +8°C° 0 mm 3 m/s 749 mmHg 50%
    01:00 +7°C° 0 mm 2 m/s 749 mmHg 51%
    02:00 +7°C° 0 mm 2 m/s 749 mmHg 53%
    03:00 +7°C° 0 mm 1 m/s 750 mmHg 54%
    04:00 +7°C° 0 mm 1 m/s 750 mmHg 56%
    05:00 +6°C° 0 mm 2 m/s 751 mmHg 58%
    06:00 +6°C° 0 mm 2 m/s 751 mmHg 60%
    07:00 +5°C° 0.1 mm 3 m/s 752 mmHg 62%
    08:00 +6°C° 0.1 mm 4 m/s 752 mmHg 63%
    09:00 +6°C° 0.1 mm 5 m/s 753 mmHg 64%
    10:00 +6°C° 0.1 mm 5 m/s 753 mmHg 64%
    11:00 +6°C° 0.1 mm 5 m/s 754 mmHg 63%
    12:00 +7°C° 0.1 mm 5 m/s 754 mmHg 62%
    13:00 +5°C° 0.1 mm 6 m/s 754 mmHg 63%
    14:00 +5°C° 0.1 mm 6 m/s 755 mmHg 64%
    15:00 +4°C° 0.1 mm 7 m/s 755 mmHg 65%
    16:00 +3°C° 0 mm 7 m/s 756 mmHg 66%
    17:00 +3°C° 0 mm 7 m/s 757 mmHg 68%
    18:00 +2°C° 0 mm 7 m/s 758 mmHg 69%
    19:00 0°C° 0 mm 7 m/s 759 mmHg 70%
    20:00 +1°C° 0 mm 6 m/s 760 mmHg 72%
    21:00 +1°C° 0 mm 6 m/s 761 mmHg 73%
    22:00 0°C° 0 mm 5 m/s 761 mmHg 73%
    23:00 0°C° 0 mm 5 m/s 762 mmHg 72%

    20 Février, Mercredi

    Heure Température Précipitation Vent Pression Humidité
    00:00 0°C° 0 mm 5 m/s 762 mmHg 72%
    01:00 0°C° 0 mm 4 m/s 763 mmHg 73%
    02:00 +1°C° 0 mm 3 m/s 763 mmHg 74%
    03:00 0°C° 0 mm 3 m/s 763 mmHg 74%
    04:00 +1°C° 0 mm 2 m/s 763 mmHg 76%
    05:00 +1°C° 0 mm 2 m/s 763 mmHg 79%
    06:00 +1°C° 0 mm 2 m/s 763 mmHg 81%
    07:00 +1°C° 0 mm 2 m/s 764 mmHg 77%
    08:00 +1°C° 0 mm 3 m/s 764 mmHg 74%
    09:00 +2°C° 0 mm 3 m/s 764 mmHg 70%
    10:00 +3°C° 0 mm 3 m/s 763 mmHg 67%
    11:00 +4°C° 0 mm 3 m/s 763 mmHg 63%
    12:00 +5°C° 0 mm 3 m/s 762 mmHg 59%
    13:00 +5°C° 0 mm 3 m/s 762 mmHg 58%
    14:00 +7°C° 0 mm 3 m/s 761 mmHg 57%
    15:00 +7°C° 0 mm 3 m/s 761 mmHg 56%
    16:00 +5°C° 0 mm 3 m/s 761 mmHg 60%
    17:00 +5°C° 0 mm 3 m/s 761 mmHg 64%
    18:00 +4°C° 0 mm 3 m/s 761 mmHg 68%
    19:00 +5°C° 0 mm 2 m/s 761 mmHg 72%
    20:00 +4°C° 0 mm 2 m/s 761 mmHg 76%
    21:00 +3°C° 0 mm 2 m/s 761 mmHg 81%
    22:00 +4°C° 0 mm 1 m/s 760 mmHg 82%
    23:00 +4°C° 0 mm 1 m/s 760 mmHg 82%

    21 Février, Jeudi

    Heure Température Précipitation Vent Pression Humidité
    00:00 +3°C° 0 mm 1 m/s 760 mmHg 83%
    01:00 +3°C° 0 mm 1 m/s 759 mmHg 85%
    02:00 +3°C° 0 mm 1 m/s 759 mmHg 86%
    03:00 +3°C° 0 mm 1 m/s 759 mmHg 87%
    04:00 +3°C° 0 mm 1 m/s 758 mmHg 87%
    05:00 +3°C° 0 mm 1 m/s 758 mmHg 88%
    06:00 +2°C° 0 mm 1 m/s 758 mmHg 88%
    07:00 +3°C° 0 mm 1 m/s 758 mmHg 83%
    08:00 +3°C° 0 mm 0 m/s 758 mmHg 78%
    09:00 +4°C° 0 mm 0 m/s 758 mmHg 72%
    10:00 +5°C° 0 mm 0 m/s 757 mmHg 65%
    11:00 +8°C° 0 mm 1 m/s 757 mmHg 58%
    12:00 +9°C° 0 mm 1 m/s 756 mmHg 51%
    13:00 +10°C° 0 mm 1 m/s 756 mmHg 48%
    14:00 +11°C° 0 mm 1 m/s 755 mmHg 44%
    15:00 +11°C° 0 mm 1 m/s 755 mmHg 40%
    16:00 +11°C° 0 mm 1 m/s 755 mmHg 43%
    17:00 +10°C° 0 mm 1 m/s 756 mmHg 46%
    18:00 +9°C° 0 mm 2 m/s 756 mmHg 49%
    19:00 +8°C° 0 mm 2 m/s 756 mmHg 52%
    20:00 +8°C° 0 mm 2 m/s 756 mmHg 55%
    21:00 +8°C° 0 mm 1 m/s 756 mmHg 58%
    22:00 +8°C° 0 mm 1 m/s 756 mmHg 60%
    23:00 +7°C° 0 mm 1 m/s 756 mmHg 63%
    Voir plus